Weather in Evora

Portugal     38°34′23″N   7°54′31″W
temp.,
°C
wind,
m/s
gust,
m/s
humid.,
%
clouds,
%
prec.,
mm/h
press.,
hPa
HPBL,
m
21 april, wed
wed2101:00+9nw3797100 0.0 1015151
04:00+10nw2397100 0.0 101489
07:00+10w2498100 0.0 1014135
10:00+15w3374100 0.0 1014641
13:00+15sw3566100 0.0 1013903
16:00+14wsw5880100 0.4 1012573
19:00+14sw5108999 0.6 1012666
22:00+13sw4109599 0.2 1013489
22 april, thu
thu2201:00+12wsw369898 0.3 1013331
04:00+13wnw3488100 0.0 1012228
07:00+13wnw2383100 0.0 101393
10:00+15wnw237198 0.0 1015791
13:00+19w234881 0.0 10141731
16:00+21wsw334053 0.0 10132289
19:00+19w345899 0.0 1013150
22:00+13nw2278100 0.0 101412
23 april, fri
fri2301:00+12sse1180100 0.0 101411
04:00+12ese2377100 0.0 101261
07:00+12se3676100 0.0 1012118
10:00+17sse71063100 0.0 1013852
13:00+21s8115264 0.1 10121893
16:00+21s9105165 0.1 10111840
19:00+19s5962100 0.1 1011839
22:00+14s2685100 0.0 1013154
24 april, sat
sat2401:00+13sse3109784 0.0 1012334
04:00+14sse41191100 0.0 1011547
07:00+12se3119381 0.0 1011466
10:00+17se466666 0.0 1011780
13:00+20sse795381 0.0 10101725
16:00+21ssw795599 0.1 10081715
19:00+18ssw467357 0.3 1008382
22:00+14sse238699 0.8 101038
25 april, sun
sun2501:00+14e2592100 1.5 1009183
04:00+13se31194100 1.2 1007581
07:00+13sse51194100 4.3 1007436
10:00+15sse578595 0.3 1008723
13:00+20s565190 0.4 10071877
16:00+19s3757100 0.1 1006441
19:00+17ssw486669 0.6 1006297
22:00+13se228022 0.0 100819